TAM3102 SBSP-SBGO

Flight info

Callsign TAM3102
Flight time 1h 20m
Altitude 32000
Route GERTU UZ25 RPR/N0440F340 UZ25 CORVO
Aircraft A320/M-SDE3FGHIRWY/LB1

Departure

Time 2026-04-20 18:11
Airport Congonhas–Deputado Freitas Nobre Airport (SBSP)

Arrival

Time 2026-04-20 19:32
Airport Santa Genoveva International Airport (SBGO)
Time Latitude Longitude Altitude Speed Heading
2026-04-20 17:46 -23.62600 -46.65906 2601 ft 0 kts 237°
2026-04-20 18:00 -23.62593 -46.65895 2600 ft 3 kts 238°
2026-04-20 18:00 -23.62584 -46.65876 2601 ft 3 kts 257°
2026-04-20 18:01 -23.62582 -46.65862 2601 ft 2 kts 319°
2026-04-20 18:01 -23.62594 -46.65853 2601 ft 2 kts 327°
2026-04-20 18:01 -23.62600 -46.65849 2601 ft 0 kts 327°
2026-04-20 18:03 -23.62586 -46.65858 2601 ft 5 kts 327°
2026-04-20 18:04 -23.62550 -46.65883 2601 ft 6 kts 327°
2026-04-20 18:04 -23.62523 -46.65903 2601 ft 4 kts 327°
2026-04-20 18:04 -23.62485 -46.65929 2601 ft 11 kts 328°
2026-04-20 18:04 -23.62413 -46.65979 2600 ft 12 kts 327°
2026-04-20 18:05 -23.62287 -46.66042 2600 ft 8 kts 351°
2026-04-20 18:05 -23.62234 -46.66049 2600 ft 7 kts 345°
2026-04-20 18:05 -23.62194 -46.66073 2599 ft 6 kts 328°
2026-04-20 18:06 -23.62154 -46.66101 2599 ft 6 kts 327°
2026-04-20 18:06 -23.62126 -46.66121 2591 ft 3 kts 327°
2026-04-20 18:06 -23.62120 -46.66125 2590 ft 0 kts 327°
2026-04-20 18:09 -23.62119 -46.66125 2598 ft 1 kts 327°
2026-04-20 18:09 -23.62098 -46.66137 2590 ft 6 kts 337°
2026-04-20 18:09 -23.62050 -46.66126 2595 ft 10 kts 43°
2026-04-20 18:10 -23.62055 -46.66073 2590 ft 7 kts 140°
2026-04-20 18:10 -23.62077 -46.66055 2596 ft 0 kts 148°
2026-04-20 18:10 -23.62147 -46.66008 2595 ft 44 kts 147°
2026-04-20 18:10 -23.62257 -46.65931 2600 ft 71 kts 147°
2026-04-20 18:11 -23.63504 -46.65064 2945 ft 156 kts 149°
2026-04-20 18:11 -23.64456 -46.64411 3923 ft 165 kts 154°
2026-04-20 18:11 -23.65637 -46.64232 4559 ft 182 kts 184°
2026-04-20 18:11 -23.66975 -46.64338 4877 ft 204 kts 182°
2026-04-20 18:12 -23.68392 -46.64436 5124 ft 224 kts 182°
2026-04-20 18:12 -23.70037 -46.64540 5436 ft 248 kts 182°
2026-04-20 18:12 -23.71837 -46.64652 5941 ft 265 kts 183°
2026-04-20 18:12 -23.73704 -46.64795 6654 ft 273 kts 189°
2026-04-20 18:13 -23.75434 -46.65647 7327 ft 279 kts 222°
2026-04-20 18:13 -23.76479 -46.67435 8075 ft 286 kts 250°
2026-04-20 18:13 -23.77053 -46.69498 8888 ft 288 kts 252°
2026-04-20 18:13 -23.77677 -46.71586 9650 ft 290 kts 244°
2026-04-20 18:14 -23.78542 -46.73586 10333 ft 294 kts 245°
2026-04-20 18:14 -23.78904 -46.75878 10549 ft 323 kts 274°
2026-04-20 18:14 -23.78144 -46.78269 10814 ft 347 kts 302°
2026-04-20 18:14 -23.76398 -46.80094 11322 ft 359 kts 327°
2026-04-20 18:15 -23.74198 -46.81428 11955 ft 364 kts 331°
2026-04-20 18:15 -23.71941 -46.82737 12607 ft 368 kts 331°
2026-04-20 18:15 -23.69653 -46.84046 13217 ft 373 kts 331°
2026-04-20 18:15 -23.67331 -46.85370 13789 ft 378 kts 331°
2026-04-20 18:16 -23.64983 -46.86712 14338 ft 383 kts 331°
2026-04-20 18:16 -23.62643 -46.88051 14810 ft 386 kts 331°
2026-04-20 18:16 -23.60252 -46.89425 15371 ft 389 kts 331°
2026-04-20 18:16 -23.57851 -46.90809 15930 ft 392 kts 330°
2026-04-20 18:17 -23.55433 -46.92202 16484 ft 395 kts 331°
2026-04-20 18:17 -23.52988 -46.93606 17030 ft 398 kts 331°
2026-04-20 18:17 -23.50527 -46.95020 17584 ft 401 kts 331°
2026-04-20 18:17 -23.48048 -46.96447 18127 ft 404 kts 331°
2026-04-20 18:18 -23.45587 -46.97864 18608 ft 406 kts 331°
2026-04-20 18:18 -23.43084 -46.99304 19124 ft 407 kts 331°
2026-04-20 18:18 -23.40575 -47.00745 19657 ft 408 kts 331°
2026-04-20 18:18 -23.38053 -47.02188 20163 ft 410 kts 331°
2026-04-20 18:19 -23.35518 -47.03637 20645 ft 411 kts 331°
2026-04-20 18:19 -23.32976 -47.05091 21131 ft 413 kts 331°
2026-04-20 18:19 -23.30421 -47.06553 21590 ft 415 kts 331°
2026-04-20 18:19 -23.27854 -47.08022 22052 ft 417 kts 331°
2026-04-20 18:20 -23.25313 -47.09477 22488 ft 419 kts 331°
2026-04-20 18:20 -23.22722 -47.10964 22924 ft 422 kts 331°
2026-04-20 18:20 -23.20113 -47.12459 23393 ft 425 kts 331°
2026-04-20 18:20 -23.17483 -47.13964 23798 ft 427 kts 331°
2026-04-20 18:21 -23.14836 -47.15473 24162 ft 429 kts 331°
2026-04-20 18:21 -23.12213 -47.16966 24532 ft 431 kts 331°
2026-04-20 18:21 -23.09550 -47.18483 24905 ft 432 kts 331°
2026-04-20 18:21 -23.06882 -47.20005 25281 ft 434 kts 331°
2026-04-20 18:22 -23.04208 -47.21531 25638 ft 435 kts 331°
2026-04-20 18:22 -23.01511 -47.23069 25993 ft 437 kts 331°
2026-04-20 18:22 -22.98812 -47.24609 26333 ft 439 kts 331°
2026-04-20 18:22 -22.96129 -47.26137 26663 ft 440 kts 331°
2026-04-20 18:23 -22.93403 -47.27690 26996 ft 442 kts 331°
2026-04-20 18:23 -22.90673 -47.29241 27324 ft 444 kts 331°
2026-04-20 18:23 -22.87930 -47.30798 27654 ft 445 kts 331°
2026-04-20 18:23 -22.85176 -47.32362 27970 ft 447 kts 331°
2026-04-20 18:24 -22.82418 -47.33931 28281 ft 449 kts 331°
2026-04-20 18:24 -22.79676 -47.35491 28580 ft 451 kts 331°
2026-04-20 18:24 -22.76896 -47.37072 28881 ft 452 kts 331°
2026-04-20 18:24 -22.74096 -47.38665 29176 ft 454 kts 331°
2026-04-20 18:25 -22.71287 -47.40261 29498 ft 455 kts 331°
2026-04-20 18:25 -22.68469 -47.41858 29826 ft 457 kts 331°
2026-04-20 18:25 -22.65645 -47.43458 30112 ft 458 kts 331°
2026-04-20 18:25 -22.62809 -47.45062 30309 ft 461 kts 331°
2026-04-20 18:26 -22.59994 -47.46652 30511 ft 463 kts 331°
2026-04-20 18:26 -22.57128 -47.48272 30709 ft 465 kts 331°
2026-04-20 18:26 -22.54247 -47.49901 30898 ft 468 kts 331°
2026-04-20 18:26 -22.51349 -47.51543 31097 ft 470 kts 331°
2026-04-20 18:27 -22.48445 -47.53187 31367 ft 470 kts 331°
2026-04-20 18:27 -22.45574 -47.54800 31629 ft 471 kts 333°
2026-04-20 18:27 -22.42506 -47.56111 31885 ft 474 kts 342°
2026-04-20 18:27 -22.39272 -47.56881 32138 ft 476 kts 350°
2026-04-20 18:28 -22.35990 -47.57421 32387 ft 477 kts 350°
2026-04-20 18:28 -22.32698 -47.57966 32644 ft 478 kts 350°
2026-04-20 18:28 -22.29447 -47.58510 32894 ft 479 kts 350°
2026-04-20 18:28 -22.26155 -47.59065 33152 ft 479 kts 350°
2026-04-20 18:29 -22.22850 -47.59624 33396 ft 480 kts 350°
2026-04-20 18:29 -22.19536 -47.60183 33628 ft 482 kts 350°
2026-04-20 18:29 -22.16224 -47.60740 33883 ft 483 kts 350°
2026-04-20 18:29 -22.12885 -47.61303 34020 ft 483 kts 350°
2026-04-20 18:30 -22.06347 -47.62396 34042 ft 475 kts 350°
2026-04-20 18:30 -21.99810 -47.63485 34042 ft 473 kts 350°
2026-04-20 18:31 -21.93329 -47.64568 34038 ft 473 kts 349°
2026-04-20 18:31 -21.86806 -47.65659 34026 ft 473 kts 349°
2026-04-20 18:32 -21.80284 -47.66749 34007 ft 473 kts 350°
2026-04-20 18:32 -21.73800 -47.67824 34006 ft 473 kts 350°
2026-04-20 18:33 -21.67274 -47.68909 33996 ft 473 kts 349°
2026-04-20 18:33 -21.60785 -47.69989 33997 ft 473 kts 350°
2026-04-20 18:34 -21.54267 -47.71066 33997 ft 473 kts 350°
2026-04-20 18:34 -21.47742 -47.72132 33997 ft 474 kts 350°
2026-04-20 18:35 -21.41223 -47.73198 34005 ft 474 kts 349°
2026-04-20 18:35 -21.34738 -47.74258 34015 ft 474 kts 350°
2026-04-20 18:36 -21.28211 -47.75325 34020 ft 474 kts 349°
2026-04-20 18:36 -21.21719 -47.76383 34025 ft 474 kts 349°
2026-04-20 18:37 -21.15190 -47.77449 34026 ft 474 kts 349°
2026-04-20 18:37 -21.08647 -47.78433 33987 ft 475 kts 351°
2026-04-20 18:38 -21.02074 -47.79297 33983 ft 475 kts 351°
2026-04-20 18:38 -20.95539 -47.80147 33983 ft 475 kts 351°
2026-04-20 18:39 -20.88968 -47.81026 33987 ft 475 kts 351°
2026-04-20 18:39 -20.82411 -47.81922 33978 ft 475 kts 351°
2026-04-20 18:40 -20.75846 -47.82824 33984 ft 475 kts 351°
2026-04-20 18:40 -20.69321 -47.83718 33986 ft 475 kts 351°
2026-04-20 18:41 -20.62741 -47.84606 33985 ft 475 kts 351°
2026-04-20 18:41 -20.56174 -47.85492 33979 ft 475 kts 351°
2026-04-20 18:42 -20.49628 -47.86379 33978 ft 475 kts 351°
2026-04-20 18:42 -20.43055 -47.87277 33980 ft 476 kts 351°
2026-04-20 18:43 -20.36516 -47.88167 33976 ft 476 kts 351°
2026-04-20 18:43 -20.29928 -47.89055 33964 ft 476 kts 351°
2026-04-20 18:44 -20.23380 -47.89934 33965 ft 476 kts 351°
2026-04-20 18:44 -20.16802 -47.90825 33965 ft 476 kts 351°
2026-04-20 18:45 -20.10221 -47.91717 33974 ft 476 kts 351°
2026-04-20 18:45 -20.03668 -47.92605 34007 ft 476 kts 351°
2026-04-20 18:46 -19.97082 -47.93500 34038 ft 476 kts 351°
2026-04-20 18:46 -19.90504 -47.94386 34070 ft 476 kts 351°
2026-04-20 18:47 -19.83971 -47.95265 34089 ft 476 kts 351°
2026-04-20 18:47 -19.77387 -47.96149 34095 ft 476 kts 351°
2026-04-20 18:48 -19.70816 -47.97033 34095 ft 476 kts 351°
2026-04-20 18:48 -19.67521 -47.97478 33973 ft 476 kts 351°
2026-04-20 18:48 -19.64271 -47.97918 33972 ft 476 kts 351°
2026-04-20 18:49 -19.57691 -47.98806 33972 ft 475 kts 351°
2026-04-20 18:49 -19.51119 -47.99688 33974 ft 475 kts 351°
2026-04-20 18:50 -19.44593 -48.00566 33966 ft 475 kts 351°
2026-04-20 18:50 -19.38024 -48.01447 33964 ft 475 kts 351°
2026-04-20 18:51 -19.31501 -48.02318 33968 ft 474 kts 351°
2026-04-20 18:51 -19.24935 -48.03217 33968 ft 474 kts 350°
2026-04-20 18:52 -19.18386 -48.04148 33969 ft 474 kts 350°
2026-04-20 18:52 -19.11884 -48.05073 33964 ft 474 kts 350°
2026-04-20 18:53 -19.05327 -48.05998 33963 ft 474 kts 350°
2026-04-20 18:53 -18.99893 -48.06766 33961 ft 474 kts 350°
2026-04-20 18:54 -18.95559 -48.07376 34075 ft 474 kts 350°
2026-04-20 18:54 -18.92287 -48.07843 34084 ft 473 kts 348°
2026-04-20 18:54 -18.87058 -48.09405 34090 ft 468 kts 336°
2026-04-20 18:55 -18.79927 -48.12132 34085 ft 468 kts 336°
2026-04-20 18:55 -18.74826 -48.14079 34067 ft 468 kts 336°
2026-04-20 18:56 -18.68696 -48.16417 34039 ft 468 kts 336°
2026-04-20 18:56 -18.62561 -48.18762 33999 ft 468 kts 336°
2026-04-20 18:57 -18.56423 -48.21104 33958 ft 468 kts 336°
2026-04-20 18:57 -18.50321 -48.23419 33930 ft 469 kts 336°
2026-04-20 18:58 -18.44172 -48.25748 33928 ft 469 kts 336°
2026-04-20 18:58 -18.38028 -48.28083 33922 ft 469 kts 335°
2026-04-20 18:59 -18.31920 -48.30409 33923 ft 469 kts 335°
2026-04-20 18:59 -18.25764 -48.32750 33921 ft 469 kts 336°
2026-04-20 19:00 -18.19644 -48.35071 33914 ft 469 kts 335°
2026-04-20 19:00 -18.13494 -48.37401 33916 ft 469 kts 335°
2026-04-20 19:01 -18.07337 -48.39730 33919 ft 469 kts 335°
2026-04-20 19:01 -18.01222 -48.42039 33920 ft 469 kts 335°
2026-04-20 19:02 -17.95074 -48.44371 33749 ft 466 kts 335°
2026-04-20 19:02 -17.92040 -48.45519 33490 ft 460 kts 335°
2026-04-20 19:02 -17.89035 -48.46655 33238 ft 457 kts 335°
2026-04-20 19:03 -17.86039 -48.47787 32982 ft 455 kts 335°
2026-04-20 19:03 -17.83090 -48.48901 32733 ft 454 kts 335°
2026-04-20 19:03 -17.80122 -48.50024 32469 ft 452 kts 335°
2026-04-20 19:03 -17.77160 -48.51144 32236 ft 450 kts 335°
2026-04-20 19:04 -17.74220 -48.52255 31996 ft 449 kts 335°
2026-04-20 19:04 -17.71355 -48.53425 31744 ft 443 kts 329°
2026-04-20 19:04 -17.68689 -48.54995 31491 ft 434 kts 322°
2026-04-20 19:04 -17.66122 -48.56657 31020 ft 432 kts 323°
2026-04-20 19:05 -17.63562 -48.58314 30545 ft 430 kts 323°
2026-04-20 19:05 -17.61022 -48.59954 30074 ft 428 kts 323°
2026-04-20 19:05 -17.58481 -48.61593 29571 ft 426 kts 323°
2026-04-20 19:05 -17.55974 -48.63210 29122 ft 421 kts 323°
2026-04-20 19:06 -17.53514 -48.64792 28677 ft 417 kts 324°
2026-04-20 19:06 -17.51050 -48.66375 28259 ft 413 kts 324°
2026-04-20 19:06 -17.48613 -48.67941 27825 ft 409 kts 324°
2026-04-20 19:06 -17.46197 -48.69494 27390 ft 405 kts 324°
2026-04-20 19:07 -17.43800 -48.71037 26967 ft 402 kts 324°
2026-04-20 19:07 -17.41450 -48.72551 26529 ft 399 kts 324°
2026-04-20 19:07 -17.39088 -48.74071 26105 ft 396 kts 325°
2026-04-20 19:07 -17.36744 -48.75577 25669 ft 394 kts 325°
2026-04-20 19:08 -17.34413 -48.77075 25226 ft 392 kts 326°
2026-04-20 19:08 -17.29772 -48.80052 24311 ft 389 kts 326°
2026-04-20 19:08 -17.27491 -48.81515 23865 ft 389 kts 326°
2026-04-20 19:09 -17.25188 -48.82996 23371 ft 388 kts 327°
2026-04-20 19:09 -17.22884 -48.84475 22867 ft 386 kts 327°
2026-04-20 19:09 -17.20602 -48.85935 22419 ft 384 kts 327°
2026-04-20 19:09 -17.18326 -48.87390 21959 ft 382 kts 327°
2026-04-20 19:10 -17.16065 -48.88837 21516 ft 380 kts 327°
2026-04-20 19:10 -17.13811 -48.90277 21075 ft 378 kts 327°
2026-04-20 19:10 -17.11600 -48.91693 20629 ft 377 kts 327°
2026-04-20 19:10 -17.09362 -48.93128 20185 ft 375 kts 327°
2026-04-20 19:11 -17.07134 -48.94556 19753 ft 374 kts 328°
2026-04-20 19:11 -17.04912 -48.95977 19298 ft 373 kts 328°
2026-04-20 19:11 -17.02720 -48.97378 18875 ft 373 kts 328°
2026-04-20 19:11 -17.00507 -48.98789 18432 ft 369 kts 328°
2026-04-20 19:12 -16.98347 -49.00167 17971 ft 357 kts 328°
2026-04-20 19:12 -16.96226 -49.01520 17541 ft 355 kts 328°
2026-04-20 19:12 -16.94123 -49.02863 17125 ft 353 kts 328°
2026-04-20 19:12 -16.92049 -49.04189 16725 ft 352 kts 328°
2026-04-20 19:13 -16.89961 -49.05524 16311 ft 351 kts 328°
2026-04-20 19:13 -16.87880 -49.06853 15905 ft 350 kts 329°
2026-04-20 19:13 -16.85800 -49.08180 15538 ft 349 kts 329°
2026-04-20 19:13 -16.83761 -49.09480 15146 ft 348 kts 329°
2026-04-20 19:14 -16.81758 -49.10894 14751 ft 347 kts 319°
2026-04-20 19:14 -16.80121 -49.12735 14345 ft 347 kts 305°
2026-04-20 19:14 -16.78877 -49.14879 13952 ft 340 kts 300°
2026-04-20 19:14 -16.77711 -49.16975 13542 ft 328 kts 300°
2026-04-20 19:15 -16.76575 -49.19001 13163 ft 316 kts 300°
2026-04-20 19:15 -16.75482 -49.20946 12799 ft 305 kts 300°
2026-04-20 19:15 -16.74421 -49.22832 12439 ft 299 kts 300°
2026-04-20 19:15 -16.73376 -49.24688 12081 ft 300 kts 300°
2026-04-20 19:16 -16.72318 -49.26568 11711 ft 301 kts 300°
2026-04-20 19:16 -16.71258 -49.28454 11335 ft 301 kts 300°
2026-04-20 19:16 -16.70193 -49.30348 10949 ft 302 kts 300°
2026-04-20 19:16 -16.69123 -49.32248 10541 ft 304 kts 300°
2026-04-20 19:17 -16.68058 -49.34135 10135 ft 305 kts 300°
2026-04-20 19:17 -16.66983 -49.36048 9689 ft 307 kts 300°
2026-04-20 19:17 -16.65900 -49.37982 9243 ft 308 kts 300°
2026-04-20 19:17 -16.64818 -49.39908 8790 ft 305 kts 301°
2026-04-20 19:18 -16.63457 -49.41520 8352 ft 292 kts 328°
2026-04-20 19:18 -16.61607 -49.42134 7930 ft 280 kts
2026-04-20 19:18 -16.59811 -49.41645 7484 ft 270 kts 29°
2026-04-20 19:18 -16.58168 -49.40672 7028 ft 263 kts 31°
2026-04-20 19:19 -16.56618 -49.39695 6585 ft 257 kts 34°
2026-04-20 19:19 -16.55415 -49.38375 6137 ft 251 kts 67°
2026-04-20 19:19 -16.55205 -49.36622 5722 ft 244 kts 104°
2026-04-20 19:19 -16.55931 -49.35061 5344 ft 238 kts 122°
2026-04-20 19:20 -16.56777 -49.33618 4950 ft 234 kts 121°
2026-04-20 19:20 -16.57597 -49.32160 4549 ft 230 kts 120°
2026-04-20 19:20 -16.58380 -49.30751 4169 ft 218 kts 120°
2026-04-20 19:20 -16.59113 -49.29427 3901 ft 200 kts 121°
2026-04-20 19:21 -16.59771 -49.28241 3697 ft 178 kts 120°
2026-04-20 19:21 -16.60365 -49.27170 3380 ft 164 kts 121°
2026-04-20 19:21 -16.60911 -49.26187 3191 ft 154 kts 120°
2026-04-20 19:21 -16.61440 -49.25226 2986 ft 152 kts 121°
2026-04-20 19:22 -16.61967 -49.24286 2782 ft 148 kts 121°
2026-04-20 19:22 -16.62490 -49.23358 2570 ft 147 kts 122°
2026-04-20 19:22 -16.63005 -49.22449 2478 ft 136 kts 121°
2026-04-20 19:22 -16.63503 -49.21533 2762 ft 159 kts 120°
2026-04-20 19:23 -16.64044 -49.20511 3565 ft 164 kts 120°
2026-04-20 19:23 -16.64656 -49.19492 4028 ft 174 kts 135°
2026-04-20 19:23 -16.65827 -49.19039 4203 ft 196 kts 185°
2026-04-20 19:23 -16.67125 -49.19648 4424 ft 218 kts 218°
2026-04-20 19:24 -16.68006 -49.20988 4770 ft 236 kts 253°
2026-04-20 19:24 -16.67987 -49.22718 5175 ft 254 kts 283°
2026-04-20 19:24 -16.67533 -49.24530 5839 ft 260 kts 284°
2026-04-20 19:24 -16.67072 -49.26365 6567 ft 263 kts 284°
2026-04-20 19:25 -16.66606 -49.28238 6889 ft 267 kts 284°
2026-04-20 19:25 -16.66144 -49.30109 6985 ft 265 kts 284°
2026-04-20 19:25 -16.65689 -49.31954 7002 ft 266 kts 284°
2026-04-20 19:25 -16.65228 -49.33825 6999 ft 266 kts 284°
2026-04-20 19:26 -16.64768 -49.35693 6994 ft 265 kts 284°
2026-04-20 19:26 -16.64305 -49.37565 6988 ft 266 kts 284°
2026-04-20 19:26 -16.63842 -49.39434 6981 ft 266 kts 284°
2026-04-20 19:26 -16.63091 -49.41154 6974 ft 265 kts 312°
2026-04-20 19:27 -16.61559 -49.42157 6972 ft 264 kts 348°
2026-04-20 19:27 -16.59758 -49.42068 6888 ft 258 kts 20°
2026-04-20 19:27 -16.58182 -49.41265 6769 ft 246 kts 33°
2026-04-20 19:27 -16.56805 -49.40255 6649 ft 237 kts 44°
2026-04-20 19:28 -16.55876 -49.38839 6161 ft 240 kts 70°
2026-04-20 19:28 -16.55536 -49.37154 5546 ft 242 kts 90°
2026-04-20 19:28 -16.55794 -49.35456 4944 ft 235 kts 112°
2026-04-20 19:28 -16.56550 -49.33975 4368 ft 229 kts 121°
2026-04-20 19:29 -16.57330 -49.32582 4075 ft 211 kts 121°
2026-04-20 19:29 -16.58047 -49.31303 4152 ft 201 kts 121°
2026-04-20 19:29 -16.58733 -49.30080 4078 ft 188 kts 121°
2026-04-20 19:29 -16.59363 -49.28955 3852 ft 177 kts 121°
2026-04-20 19:30 -16.59962 -49.27889 3574 ft 163 kts 121°
2026-04-20 19:30 -16.60510 -49.26900 3354 ft 153 kts 121°
2026-04-20 19:30 -16.61035 -49.25947 3136 ft 150 kts 121°
2026-04-20 19:30 -16.61553 -49.25006 2938 ft 150 kts 121°
2026-04-20 19:31 -16.62080 -49.24080 2744 ft 148 kts 123°
2026-04-20 19:31 -16.62607 -49.23166 2526 ft 146 kts 121°
2026-04-20 19:31 -16.63095 -49.22285 2462 ft 132 kts 122°
2026-04-20 19:31 -16.63501 -49.21570 2460 ft 90 kts 120°
2026-04-20 19:32 -16.63698 -49.21213 2462 ft 41 kts 121°
2026-04-20 19:32 -16.63709 -49.21082 2461 ft 15 kts 45°
2026-04-20 19:32 -16.63637 -49.21036 2463 ft 9 kts 30°
2026-04-20 19:32 -16.63590 -49.21008 2464 ft 7 kts 30°
2026-04-20 19:33 -16.63517 -49.21000 2464 ft 16 kts 346°
2026-04-20 19:33 -16.63404 -49.21032 2466 ft 17 kts 336°
2026-04-20 19:33 -16.63336 -49.21120 2463 ft 15 kts 300°
2026-04-20 19:33 -16.63282 -49.21213 2468 ft 14 kts 301°
2026-04-20 19:34 -16.63235 -49.21298 2463 ft 13 kts 299°
2026-04-20 19:34 -16.63194 -49.21374 2464 ft 12 kts 300°
2026-04-20 19:34 -16.63156 -49.21441 2465 ft 10 kts 301°
2026-04-20 19:34 -16.63117 -49.21500 2462 ft 10 kts 308°
2026-04-20 19:35 -16.63067 -49.21554 2462 ft 11 kts 317°
2026-04-20 19:35 -16.63026 -49.21542 2467 ft 6 kts 55°
2026-04-20 19:35 -16.63009 -49.21516 2468 ft 2 kts 56°
2026-04-20 19:35 -16.63005 -49.21509 2467 ft 0 kts 56°